Location: Igri�s
(42.2144°N, 0.4320°W)
Time: 18:59:40
(UTC+00:00)

Cosmos 1515 - Pass Details

Date: 13 August 2020
Orbit: 505 x 517 km, 82.5° (Epoch: 20 September)

Event Time Altitude Azimuth Distance (km) Brightness Sun altitude
Rises 21:26:26 0° 351° (N) 2,641 8.2 -22.6°
Reaches altitude 10° 21:28:35 10° 351° (N) 1,748 7.1 -22.8°
Enters shadow 21:32:04 72° 346° (NNW) 543 3.8 -23.3°
